Regional Weather Roundup
Issued by NWS Goodland, KS

Home | Current Version | Previous Version | Graphics & Text | Print | Product List | Glossary On
Versions: 1 2 3 4 5 6 7 8 9 10 11 12 13 14 15 16 17 18 19 20 21 22 23 24 25 26 27 28 29 30 31 32 33 34 35 36 37 38 39 40 41 42 43 44 45 46 47 48 49 50
000
ASUS43 KGLD 190759
RWRGLD

GOODLAND FORECAST AREA HOURLY WEATHER ROUNDUP
NATIONAL WEATHER SERVICE GOODLAND KS
100 AM MST THU JAN 19 2017

...OFFICIAL OBSERVATIONS...

CITY           SKY/WX    TMP DP  RH WIND       PRES   REMARKS
GOODLAND KS    CLEAR     29  25  85 S3        29.65F
HILL CITY KS   CLOUDY    43  43 100 S8        29.72F
IMPERIAL NEB   CLOUDY    27  24  89 W5        29.67F FOG
MCCOOK NEB     FOG       30  30 100 NE3       29.69F VSB<1/4
AKRON CO       CLOUDY    28  18  66 W10       29.65S WCI  19
BURLINGTON CO  CLOUDY    28  24  85 SW7       29.65F
LIMON CO       CLOUDY    17  14  88 N6        29.65F
$$

...UNOFFICIAL OBSERVATIONS...

CITY           SKY/WX    TMP DP  RH WIND       PRES   REMARKS
LENORA KS        N/A     40  32  73 S8          N/A
SHARON SPRINGS   N/A     30  28  92 W5          N/A
TRENTON NEB      N/A     30  32 100 CALM        N/A
KIT CARSON CO    N/A     25  22  89 CALM        N/A
YUMA CO        FAIR      14  10  85 W3        29.65S
$$



USA.gov is the U.S. government's official web portal to all federal, state and local government web resources and services.